Location: Goettingen
(51.5300°N, 9.9433°E)
Time: 17:46:15
(UTC+02:00)

ISS - Pass Details

Date: 09 May 2026
Orbit: 414 x 424 km, 51.6° (Epoch: 13 May)

Event Time Altitude Azimuth Distance (km) Brightness Sun altitude
Exits shadow 03:24:03 30° 169° (SSE) 781 -2.8 -15.8°
Drops below altitude 10° 03:26:13 10° 138° (SE) 1,495 -1.1 -15.6°
Sets 03:28:24 0° 130° (SE) 2,358 0.0 -15.4°
